Ireland West Airport Knock, Ireland

9:28 PM IST on September 30, 2016 (GMT +0100)
Connaught

Weather History for EIKN - April, 2014

Change the Weather History Date:

Monday, April 28, 2014

  Actual Average Record
Temperature  
Mean Temperature 54 °F -  
Max Temperature 63 °F - - ()
Min Temperature 45 °F - - ()
Degree Days  
Heating Degree Days 11    
Growing Degree Days 4 (Base 50)    
Moisture  
Dew Point 44 °F    
Average Humidity 68    
Maximum Humidity 88    
Minimum Humidity 42    
Precipitation  
Precipitation 0.00 in - - ()
Sea Level Pressure  
Sea Level Pressure 29.90 in    
Wind  
Wind Speed 4 mph ()    
Max Wind Speed 8 mph    
Max Gust Speed -    
Visibility 5.9 miles    
Events Fog    
T = Trace of Precipitation, MM = Missing Value Source: Averaged Metar Reports

Daily Weather History Graph

Daily Weather History Graph

Search for Another Location

Airport or City:

Trip Planner

Search our weather history database for the weather conditions in past years. The results will help you decide how hot, cold, wet, or windy it might be!

Date:

Astronomy

Apr. 28, 2014 Rise Set
Actual Time 6:05 AM IST 9:00 PM IST
Civil Twilight 5:25 AM IST 9:41 PM IST
Nautical Twilight 4:32 AM IST 10:35 PM IST
Astronomical Twilight 3:23 AM IST 11:45 PM IST
Moon 5:46 AM IST (4/28) 8:18 PM IST (4/28)
Length of Visible Light 16h 16m
Length of Day
14h 55m
Waning Crescent, 1% of the Moon is Illuminated
Apr 28
Waning Crescent
Apr 29
New
May 7
First Quarter
May 14
Full
May 21
Last Quarter

Hourly Weather History & Observations

Time (IST) Temp. Windchill Dew Point Humidity Pressure Visibility Wind Dir Wind Speed Gust Speed Precip Events Conditions
12:00 AM 49 °F - 42 °F 68% 29.94 in - NNW 6.7 mph - -  
1:00 AM 48 °F - 44 °F 79% 29.94 in - North 6.7 mph - -  
2:00 AM 48 °F - 42 °F 75% 29.93 in - NNE 4.5 mph - -  
3:00 AM 48 °F - 43 °F 77% 29.92 in - NNE 4.5 mph - -  
4:00 AM 47 °F - 44 °F 83% 29.92 in - NNE 4.5 mph - -  
5:00 AM 47 °F - 42 °F 79% 29.91 in - NNE 6.7 mph - -  
6:00 AM 46 °F - 43 °F 87% 29.92 in 4 mi North 4.5 mph - - Fog Light Fog
6:00 AM 46.4 °F 44.3 °F 42.8 °F 87% 29.89 in 4.3 mi North 4.6 mph - N/A Fog Fog
6:30 AM 46.4 °F 43.5 °F 42.8 °F 87% 29.89 in 4.3 mi North 5.8 mph - N/A Fog Fog
7:00 AM 46 °F - 44 °F 88% 29.93 in 4 mi North 4.5 mph - - Fog Light Fog
7:00 AM 46.4 °F 44.3 °F 42.8 °F 87% 29.89 in 4.3 mi North 4.6 mph - N/A Fog Fog
7:30 AM 46.4 °F 44.3 °F 42.8 °F 87% 29.89 in 6.2 mi NNE 4.6 mph - N/A   Partly Cloudy
8:00 AM 47 °F - 43 °F 82% 29.93 in 22 mi North 4.5 mph - -   Scattered Clouds
8:00 AM 46.4 °F 45.2 °F 42.8 °F 87% 29.89 in 6.2 mi North 3.5 mph - N/A   Scattered Clouds
8:30 AM 48.2 °F - 42.8 °F 82% 29.92 in 6.2 mi NNW 3.5 mph - N/A   Mostly Cloudy
9:00 AM 49 °F - 44 °F 77% 29.93 in 25 mi NW 2.2 mph - -   Scattered Clouds
9:00 AM 50.0 °F - 44.6 °F 82% 29.92 in 6.2 mi NW 2.3 mph - N/A   Mostly Cloudy
9:30 AM 50.0 °F - 44.6 °F 82% 29.92 in 6.2 mi NNW 2.3 mph - N/A   Mostly Cloudy
10:00 AM 51 °F - 46 °F 76% 29.93 in 28 mi WNW 2.2 mph - -   Scattered Clouds
10:00 AM 50.0 °F - 46.4 °F 87% 29.92 in 6.2 mi WNW 2.3 mph - N/A   Mostly Cloudy
10:30 AM 51.8 °F - 46.4 °F 82% 29.92 in 6.2 mi NNW 2.3 mph - N/A   Mostly Cloudy
11:00 AM 54 °F - 44 °F 60% 29.93 in 28 mi NNW 2.2 mph - -   Scattered Clouds
11:00 AM 53.6 °F - 44.6 °F 72% 29.92 in 6.2 mi NNW 2.3 mph - N/A   Mostly Cloudy
11:30 AM 55.4 °F - 44.6 °F 67% 29.89 in 6.2 mi North 3.5 mph - N/A   Mostly Cloudy
12:00 PM 56 °F - 44 °F 53% 29.91 in 31 mi North 4.5 mph - -   Mostly Cloudy
12:00 PM 55.4 °F - 42.8 °F 63% 29.89 in 6.2 mi North 4.6 mph - N/A   Mostly Cloudy
12:30 PM 57.2 °F - 42.8 °F 59% 29.89 in 6.2 mi NE 4.6 mph - N/A   Mostly Cloudy
1:00 PM 58 °F - 42 °F 44% 29.90 in 31 mi NNE 2.2 mph - -   Partly Cloudy
1:00 PM 57.2 °F - 42.8 °F 59% 29.89 in 6.2 mi Variable 2.3 mph - N/A   Mostly Cloudy
1:30 PM 59.0 °F - 42.8 °F 55% 29.89 in 6.2 mi NNE 2.3 mph - N/A   Mostly Cloudy
2:00 PM 61 °F - 44 °F 42% 29.89 in 37 mi SSE 2.2 mph - -   Scattered Clouds
2:00 PM 60.8 °F - 44.6 °F 55% 29.89 in 6.2 mi Variable 2.3 mph - N/A   Mostly Cloudy
2:30 PM 62.6 °F - 44.6 °F 52% 29.89 in 6.2 mi Variable 2.3 mph - N/A   Mostly Cloudy
3:00 PM 60 °F - 45 °F 46% 29.88 in 37 mi NE 6.7 mph - -   Mostly Cloudy
3:00 PM 60.8 °F - 44.6 °F 55% 29.89 in 6.2 mi NE 5.8 mph - N/A   Mostly Cloudy
3:30 PM 59.0 °F - 44.6 °F 59% 29.86 in 6.2 mi NE 4.6 mph - N/A   Mostly Cloudy
4:00 PM 58 °F - 45 °F 51% 29.88 in 40 mi NE 4.5 mph - -   Mostly Cloudy
4:00 PM 59.0 °F - 44.6 °F 59% 29.86 in 6.2 mi NE 4.6 mph - N/A   Mostly Cloudy
4:30 PM 57.2 °F - 44.6 °F 63% 29.86 in 6.2 mi NE 4.6 mph - N/A   Mostly Cloudy
5:00 PM 59 °F - 45 °F 50% 29.88 in 44 mi NNE 6.7 mph - -   Mostly Cloudy
5:00 PM 59.0 °F - 44.6 °F 59% 29.86 in 6.2 mi NNE 5.8 mph - N/A   Mostly Cloudy
5:30 PM 57.2 °F - 44.6 °F 63% 29.86 in 6.2 mi NE 8.1 mph - N/A   Mostly Cloudy
6:00 PM 57 °F - 44 °F 52% 29.88 in 44 mi NE 6.7 mph - -   Mostly Cloudy
6:00 PM 57.2 °F - 44.6 °F 63% 29.86 in 6.2 mi NE 5.8 mph - N/A   Mostly Cloudy
7:00 PM 57 °F - 45 °F 55% 29.88 in 47 mi NE 6.7 mph - -   Mostly Cloudy
7:30 PM 55.4 °F - 44.6 °F 67% 29.86 in 6.2 mi NE 6.9 mph - N/A   Mostly Cloudy
8:00 PM 55 °F - 42 °F 52% 29.89 in 47 mi NE 6.7 mph - -   Mostly Cloudy
8:00 PM 55.4 °F - 42.8 °F 63% 29.86 in 6.2 mi NE 5.8 mph - N/A   Mostly Cloudy
9:00 PM 54 °F - 44 °F 61% 29.89 in - NNE 4.5 mph - -  
10:00 PM 53 °F - 47 °F 74% 29.91 in - NNE 4.5 mph - -  
11:00 PM 52 °F - 45 °F 70% 29.91 in - ENE 6.7 mph - -